SCP
0 0 0 0 0 0 0 0 0 0 0 0 0 0 0 0 0 0 0 0 0 0 0 0 -0 0 0 0 0 0 0 0 0 -0 0 0 0 0 0 0 0 0 0 0
0 0 0 0 0 0 0 0 0 0 0 0 0 0 0 0 0 0 0 0 0 0 0 0 0 0 0 0 0 0 0 0 0 0 0 0 0 0 0 0 0 0 0 0
0 0 0 0 0 0 0 0 0 0 0 0 0 0 0 0 0 0 0 0 0 0 0 0 0 0 0 0 0 0 0 0 0 0 0 0 0 0 0 0 0 0 0 0
0 0 0 0 0 0 0 0 0 0 0 0 0 0 0 0 0 0 0 0 0 0 0 0 0 0 0 0 0 0 0 0 0 0 0 0 0 0 0 0 0 0 0 0
0 0 0 0 0 0 0 0 0 0 0 0 0 0 0 0 0 0 0 0 0 0 0 0 0 0 0 0 0 0 0 0 0 0 0 0 0 0 0 0 0 0 0 0
0 0 0 0 0 0 0 0 0 0 0 0 0 0 0 0 0 0 0 0 0 0 0 0 0 0 0 0 0 0 0 0 0 0 0 0 0 0 0 0 0 0 0 0
0 0 0 0 0 0 0 0 0 0 0 0 0 0 0 0 0 -0 0 0 0 0 0 0 0 0 0 0 0 0 0 0 0 0 0 0 0 0 0 0 0 0 0 0
0 0 0 0 0 0 0 0 0 0 0 0 -0 -0 0 0 0 0 0 0 0 -0 0 0 0 0 0 0 0 0 0 0 0 0 0 0 0 0 0 0 0 0 0 0
0 0 0 0 0 0 0 0 0 0 0 0 -0 -0 0 0 0 0 0 0 0 0 -0 -0 0 0 0 0 0 0 0 0 0 0 0 0 0 0 0 0 0 1 1 0
0 0 -0 0 0 0 0 0 0 0 0 0 0 0 0 0 0 0 0 0 0 -0 -0 -0 0 0 0 0 0 0 0 0 0 0 0 0 0 1 0 0 0 1 1 1
0 -0 0 0 0 0 0 0 0 0 0 0 0 -0 -0 0 0 0 0 0 0 0 -0 -0 -0 0 0 0 0 0 0 0 0 0 0 0 1 0 0 2 1 1 1 1
0 0 0 0 0 0 0 0 0 0 0 0 -0 -0 -0 -0 0 -0 -0 -0 0 0 0 0 0 0 0 0 0 0 0 0 0 0 0 1 1 1 1 1 2 2 2 1
0 0 -0 0 0 0 -0 -0 -0 0 -0 -0 -0 -0 -0 -0 -0 0 -0 0 0 0 -0 0 0 0 1 0 0 0 0 -0 0 0 1 1 1 1 2 2 3 2 2 2
0 0 0 0 -0 0 0 0 -0 -0 -0 -0 -0 -0 -0 0 0 -0 0 0 0 0 0 -0 0 0 0 0 0 0 0 0 0 0 2 2 2 2 2 2 1 1 1 1
0 0 0 0 0 0 0 0 0 0 -0 0 -0 -0 -0 -0 -0 -0 0 0 0 0 -0 -0 0 0 -0 0 0 -0 0 0 1 2 1 2 2 1 0 0 0 0 0 0
0 0 0 0 0 0 0 0 0 -0 0 0 0 0 0 0 -0 0 -0 -0 0 -0 -0 0 0 -0 -0 0 0 0 0 0 0 0 0 0 0 0 0 0 0 0 0 0
0 0 0 0 0 0 0 0 0 0 -0 0 0 0 0 0 0 0 0 -0 0 0 0 -0 0 -0 -0 -0 0 -0 0 0 0 0 0 0 0 0 0 0 0 0 0 0
0 0 0 0 0 0 0 0 0 0 0 0 0 0 0 0 -0 -0 0 -0 -0 0 -0 -0 0 0 0 -0 -0 0 0 -0 0 0 0 0 0 0 0 0 0 0 0 0
-0 0 0 0 0 0 0 0 0 0 0 0 -0 -0 -0 0 -0 -0 0 -0 -0 -0 -0 0 0 0 0 0 0 0 0 0 0 -0 -0 -0 0 0 0 0 0 0 0 0
-0 0 0 0 0 0 0 0 0 0 0 0 0 0 0 0 0 -0 -0 -0 -0 0 0 0 0 0 0 0 0 0 0 0 0 0 0 0 0 0 0 0 0 0 0 0
0 0 0 0 0 0 0 0 0 0 0 0 0 0 0 -0 0 0 -0 0 0 0 0 0 0 0 0 0 0 0 0 0 0 0 0 0 0 -0 0 0 0 0 0 0
0 0 0 0 0 0 0 0 0 0 0 0 0 0 0 0 0 0 0 0 0 0 0 0 0 0 0 0 0 0 -0 0 0 0 0 0 0 0 0 0 0 0 0 0
0 0 0 0 0 0 0 0 0 0 0 0 0 -0 0 0 0 0 0 0 0 0 0 0 0 0 0 0 -0 -0 -0 0 0 0 0 0 -0 -0 -0 -0 -0 -0 -0 0
0 0 0 0 0 0 0 0 0 0 -0 -0 0 0 0 0 0 0 0 0 0 0 0 0 0 0 0 0 0 0 -0 -0 -0 -0 0 -0 -0 -0 -0 0 -0 -0 -0 0
-0 -0 0 0 0 0 0 0 0 -0 0 0 0 0 0 0 0 0 0 0 0 0 0 0 0 0 0 0 -0 -0 0 0 0 0 0 0 0 0 -0 -0 -0 0 0 0
0 0 0 -0 -0 -0 0 0 -0 0 0 0 0 0 0 0 0 0 0 0 0 0 0 0 0 0 0 0 0 -0 -0 0 -0 -0 -0 -0 -0 -0 -0 0 0 0 0 0
0 0 -0 -0 -0 0 0 -0 0 0 0 0 0 0 0 0 0 0 0 0 0 0 0 0 0 0 0 0 -0 -0 -0 -0 -0 -0 0 0 -0 -0 -0 -0 0 0 -0 -0
Wind_Speed_500mb
52 53 52 49 48 50 36 35 17 13 15 27 27 33 53 63 61 80 65 60 63 64 61 58 57 62 51 48 54 57 53 36 37 51 51 54 59 55 53 35 43 40 39 32
49 48 45 44 40 37 33 32 49 50 50 31 32 45 58 61 57 55 61 64 64 60 59 57 58 60 54 58 54 51 45 44 32 47 45 46 59 55 49 50 43 42 37 34
49 46 43 39 35 32 22 22 12 39 44 63 39 41 49 50 63 50 61 47 47 64 63 57 57 58 61 57 53 11 40 42 52 37 43 37 48 59 55 52 36 42 42 42
52 47 41 37 33 28 16 17 16 40 26 36 40 25 44 40 46 54 50 36 41 33 26 55 57 60 62 57 37 23 27 32 43 58 56 49 51 52 55 52 50 45 44 45
49 47 44 38 31 26 21 13 26 28 48 53 47 38 35 47 45 33 41 40 42 42 37 28 33 53 48 45 46 43 46 31 36 42 52 56 49 53 54 58 56 55 48 50
51 44 42 36 32 27 18 29 36 25 24 33 31 33 41 26 33 26 45 44 21 41 35 54 69 72 73 58 45 34 41 31 31 40 45 46 50 54 45 47 47 46 44 42
48 41 39 35 31 33 32 34 26 10 19 29 34 32 41 37 39 27 47 55 13 34 52 64 61 60 55 47 51 49 38 37 30 32 34 48 38 36 50 45 39 44 46 38
44 38 35 31 33 34 38 34 32 12 11 30 42 40 37 38 47 30 45 59 52 10 16 19 25 27 36 42 49 49 37 35 31 30 35 36 45 41 36 29 40 33 23 24
42 39 35 26 34 26 32 36 35 21 6 18 43 39 45 29 29 30 34 53 40 12 7 7 8 9 22 40 50 33 44 21 24 27 39 51 34 39 17 7 15 16 20 18
33 29 30 30 30 24 29 36 29 36 12 39 42 34 35 33 21 12 38 31 30 23 8 6 4 9 19 18 33 26 21 15 31 28 30 39 7 22 27 25 16 10 16 20
28 27 30 27 31 24 27 30 26 42 31 55 51 58 58 55 49 22 19 19 10 18 17 12 11 14 14 22 36 29 22 19 25 23 29 27 26 23 23 5 16 3 10 19
26 31 29 24 19 23 26 33 21 28 38 42 50 53 53 55 51 41 40 19 32 12 5 4 8 15 13 20 17 34 27 25 21 20 17 16 15 11 21 19 15 23 20 20
29 28 28 28 27 22 25 31 32 28 25 47 53 48 46 55 64 59 52 44 27 24 11 5 6 15 7 7 14 20 26 25 19 23 6 16 30 17 24 25 35 28 28 32
31 31 26 21 19 23 29 34 32 28 16 11 33 24 39 33 39 55 52 56 43 25 17 2 6 8 12 9 13 14 12 27 25 22 34 29 27 28 32 38 35 34 39 40
34 27 24 23 21 25 26 26 26 22 21 9 39 64 41 34 31 41 40 37 41 32 13 5 5 12 6 4 9 6 4 11 10 7 29 21 32 39 37 43 46 43 39 45
34 31 29 29 26 26 32 11 4 5 16 13 9 36 30 21 40 28 30 30 33 17 6 3 12 10 7 7 3 10 30 19 15 12 58 36 61 53 49 51 44 40 46 40
38 36 31 27 24 24 23 14 17 20 19 10 11 12 17 18 13 25 26 26 21 12 8 10 12 7 7 6 4 7 20 31 42 56 58 45 34 41 41 42 42 50 42 36
32 27 27 27 28 31 28 15 16 7 12 8 7 10 14 6 31 19 28 29 28 13 11 8 5 7 10 6 5 23 27 38 47 60 51 38 37 36 44 54 59 48 44 36
24 22 21 25 11 9 9 23 29 11 14 7 5 5 7 17 7 14 22 32 11 15 3 3 5 3 3 9 17 25 24 21 41 52 50 41 44 50 52 51 44 53 46 38
26 21 8 10 9 25 38 7 5 7 8 10 8 15 7 4 10 5 15 7 5 1 5 6 6 7 23 29 22 26 33 32 40 38 34 41 51 52 43 41 35 38 41 32
21 13 9 27 20 13 7 7 6 4 6 12 16 18 5 5 6 3 12 4 6 3 2 3 6 6 9 17 25 38 48 50 51 50 43 34 32 36 38 40 33 41 21 14
14 19 17 19 10 6 7 7 4 6 5 12 11 10 10 4 4 2 7 1 4 5 5 6 5 5 14 3 15 28 44 52 44 38 34 28 23 20 14 19 11 3 13 12
12 11 10 14 9 8 14 11 5 11 11 16 15 10 2 6 9 4 5 9 10 10 7 6 5 11 12 10 19 30 28 30 31 31 27 17 12 20 19 16 22 6 15 11
9 12 12 10 11 12 10 22 23 39 48 53 37 21 3 12 8 7 7 2 2 8 8 9 7 17 19 15 18 38 32 25 29 25 17 26 32 38 26 21 20 17 18 18
10 10 8 13 22 32 27 38 46 48 47 50 17 11 5 17 11 9 8 9 11 9 8 4 7 21 27 30 33 26 30 24 33 40 36 32 30 30 29 30 32 18 13 20
9 8 19 37 35 38 45 48 48 59 59 11 16 15 10 13 9 14 17 8 11 7 4 7 17 25 25 27 28 32 32 20 27 27 23 28 25 21 21 20 22 22 20 20
12 23 33 35 38 33 40 50 48 47 48 25 10 15 14 12 9 8 6 3 6 15 19 18 22 24 29 33 30 32 31 33 34 22 29 25 20 22 21 20 17 16 19 11
Wind_Direction_500mb
311 309 310 314 319 322 340 307 271 263 240 244 240 251 256 259 266 274 279 277 264 267 278 275 256 228 228 232 207 215 213 228 240 243 211 211 218 213 226 239 227 235 253 248
315 315 316 313 312 320 326 300 287 268 272 265 260 264 269 266 270 265 262 266 270 272 260 268 271 272 243 215 238 214 206 219 227 240 242 220 212 224 227 233 251 253 238 245
312 312 313 313 313 310 318 300 297 304 265 246 257 274 281 282 284 281 254 283 289 263 264 258 265 270 276 259 219 69 201 221 220 233 230 221 218 218 221 228 231 239 247 234
304 307 307 310 307 308 298 268 275 304 306 299 301 357 305 300 297 295 306 302 292 327 297 256 254 258 269 271 220 205 219 239 240 220 248 229 234 218 222 223 238 239 240 241
303 297 295 299 298 305 258 269 299 316 302 300 305 294 263 268 281 303 308 289 287 308 296 340 317 319 288 260 241 202 221 230 254 243 225 239 243 227 230 220 227 243 251 248
302 299 290 287 285 285 270 277 283 289 285 283 291 293 298 304 315 312 309 349 303 292 321 320 307 293 285 282 273 219 202 225 229 239 239 243 237 239 238 222 222 230 239 252
307 300 294 282 278 271 260 271 292 286 289 291 284 302 296 312 309 287 292 295 258 273 320 311 307 283 270 266 267 256 205 203 228 235 230 238 245 231 235 253 248 224 223 229
308 300 295 287 279 281 268 271 258 240 267 286 289 292 317 319 286 287 270 289 284 262 299 355 324 273 260 246 246 246 224 193 223 226 229 242 248 236 227 236 237 249 281 317
313 305 279 289 291 275 266 267 255 238 237 260 264 315 296 292 307 303 280 295 299 150 193 78 271 293 276 227 224 246 231 200 230 217 226 226 230 222 132 101 231 348 343 327
318 307 303 291 294 274 272 272 263 244 255 271 274 276 295 296 311 303 305 320 316 181 167 155 257 265 281 274 212 214 224 230 221 224 226 238 263 135 153 197 199 74 2 334
328 325 320 301 290 278 277 278 270 240 258 269 274 270 277 282 270 256 292 320 261 246 201 170 190 257 271 239 248 222 217 217 234 225 214 221 118 157 230 8 110 34 326 313
328 321 317 316 299 292 285 277 279 265 263 268 281 264 262 257 260 276 259 228 279 332 296 203 239 252 290 302 287 266 247 245 244 245 242 134 131 97 116 131 106 38 17 347
336 329 321 310 303 294 285 284 277 287 287 283 268 268 270 254 247 243 257 263 268 266 210 294 271 249 326 279 267 326 274 31 269 229 196 115 112 131 119 110 90 64 41 46
333 330 328 327 316 308 296 285 284 284 276 275 288 291 288 275 273 221 231 242 257 301 302 295 277 284 19 347 317 307 324 318 321 241 134 114 117 112 107 100 94 77 62 60
337 335 329 329 320 330 323 303 291 272 243 284 297 303 284 266 235 212 214 225 236 263 306 353 306 321 357 340 265 310 345 331 334 336 334 114 111 102 93 84 79 75 75 63
337 326 320 315 311 307 313 300 359 8 267 289 305 311 304 292 191 195 199 209 223 256 74 340 294 267 218 287 324 294 338 306 279 108 61 62 78 84 81 77 82 80 77 80
328 321 315 310 305 299 283 280 276 291 303 284 295 296 289 296 213 182 185 194 187 187 117 213 252 230 27 247 254 341 23 126 94 95 96 62 65 68 72 68 76 79 76 70
327 325 318 306 295 285 281 291 333 228 240 255 279 284 282 241 197 164 179 179 186 155 190 225 252 300 238 199 110 86 44 65 88 90 106 105 94 80 65 61 65 62 61 58
343 334 310 306 289 255 300 313 311 281 228 267 250 272 315 318 109 252 146 191 191 153 220 211 248 276 347 358 70 86 82 92 96 94 95 95 84 66 57 54 53 58 43 31
346 324 279 287 297 297 305 295 228 221 224 233 250 210 260 268 241 318 188 82 63 355 283 253 48 17 31 32 84 106 110 99 103 92 83 75 75 75 62 55 47 60 46 18
346 319 292 303 308 293 235 223 253 237 265 224 255 270 257 177 162 232 20 79 126 146 236 46 53 9 15 38 83 103 104 107 104 104 102 101 101 90 72 72 61 61 46 3
320 319 310 314 292 268 311 315 202 215 288 285 259 322 324 118 129 102 204 351 108 39 344 76 75 357 27 95 137 110 97 96 92 88 85 83 92 96 79 111 123 136 2 353
360 337 323 327 304 349 352 327 336 303 176 256 258 54 230 241 116 251 306 33 64 165 41 62 78 223 213 153 106 108 101 97 84 71 68 50 59 70 68 60 38 113 103 61
16 346 352 355 336 2 306 305 309 310 8 354 350 345 268 213 177 64 19 334 349 52 45 42 38 352 11 126 75 76 74 93 92 87 84 76 62 82 79 48 43 55 65 60
11 32 331 348 310 305 305 340 341 4 340 312 317 203 291 12 28 35 32 44 53 36 31 36 2 358 27 58 68 70 84 69 62 66 61 62 58 65 69 61 53 55 68 77
8 342 351 1 0 357 360 352 353 350 350 349 30 23 37 37 36 23 29 26 19 320 347 74 36 44 42 40 49 58 78 114 101 87 73 57 75 73 61 50 52 49 55 71
14 3 4 12 2 14 351 348 358 5 5 34 27 31 27 47 26 43 49 44 315 316 34 57 62 56 59 53 53 56 51 47 49 48 63 60 56 62 59 64 45 49 56 50
Wind_Speed_850mb
52 53 52 49 48 50 36 35 17 13 15 27 27 33 53 63 61 80 65 60 63 64 61 58 57 62 51 48 54 57 53 36 37 51 51 54 59 55 53 35 43 40 39 32
49 48 45 44 40 37 33 32 49 50 50 31 32 45 58 61 57 55 61 64 64 60 59 57 58 60 54 58 54 51 45 44 32 47 45 46 59 55 49 50 43 42 37 34
49 46 43 39 35 32 22 22 12 39 44 63 39 41 49 50 63 50 61 47 47 64 63 57 57 58 61 57 53 11 40 42 52 37 43 37 48 59 55 52 36 42 42 42
52 47 41 37 33 28 16 17 16 40 26 36 40 25 44 40 46 54 50 36 41 33 26 55 57 60 62 57 37 23 27 32 43 58 56 49 51 52 55 52 50 45 44 45
49 47 44 38 31 26 21 13 26 28 48 53 47 38 35 47 45 33 41 40 42 42 37 28 33 53 48 45 46 43 46 31 36 42 52 56 49 53 54 58 56 55 48 50
51 44 42 36 32 27 18 29 36 25 24 33 31 33 41 26 33 26 45 44 21 41 35 54 69 72 73 58 45 34 41 31 31 40 45 46 50 54 45 47 47 46 44 42
48 41 39 35 31 33 32 34 26 10 19 29 34 32 41 37 39 27 47 55 13 34 52 64 61 60 55 47 51 49 38 37 30 32 34 48 38 36 50 45 39 44 46 38
44 38 35 31 33 34 38 34 32 12 11 30 42 40 37 38 47 30 45 59 52 10 16 19 25 27 36 42 49 49 37 35 31 30 35 36 45 41 36 29 40 33 23 24
42 39 35 26 34 26 32 36 35 21 6 18 43 39 45 29 29 30 34 53 40 12 7 7 8 9 22 40 50 33 44 21 24 27 39 51 34 39 17 7 15 16 20 18
33 29 30 30 30 24 29 36 29 36 12 39 42 34 35 33 21 12 38 31 30 23 8 6 4 9 19 18 33 26 21 15 31 28 30 39 7 22 27 25 16 10 16 20
28 27 30 27 31 24 27 30 26 42 31 55 51 58 58 55 49 22 19 19 10 18 17 12 11 14 14 22 36 29 22 19 25 23 29 27 26 23 23 5 16 3 10 19
26 31 29 24 19 23 26 33 21 28 38 42 50 53 53 55 51 41 40 19 32 12 5 4 8 15 13 20 17 34 27 25 21 20 17 16 15 11 21 19 15 23 20 20
29 28 28 28 27 22 25 31 32 28 25 47 53 48 46 55 64 59 52 44 27 24 11 5 6 15 7 7 14 20 26 25 19 23 6 16 30 17 24 25 35 28 28 32
31 31 26 21 19 23 29 34 32 28 16 11 33 24 39 33 39 55 52 56 43 25 17 2 6 8 12 9 13 14 12 27 25 22 34 29 27 28 32 38 35 34 39 40
34 27 24 23 21 25 26 26 26 22 21 9 39 64 41 34 31 41 40 37 41 32 13 5 5 12 6 4 9 6 4 11 10 7 29 21 32 39 37 43 46 43 39 45
34 31 29 29 26 26 32 11 4 5 16 13 9 36 30 21 40 28 30 30 33 17 6 3 12 10 7 7 3 10 30 19 15 12 58 36 61 53 49 51 44 40 46 40
38 36 31 27 24 24 23 14 17 20 19 10 11 12 17 18 13 25 26 26 21 12 8 10 12 7 7 6 4 7 20 31 42 56 58 45 34 41 41 42 42 50 42 36
32 27 27 27 28 31 28 15 16 7 12 8 7 10 14 6 31 19 28 29 28 13 11 8 5 7 10 6 5 23 27 38 47 60 51 38 37 36 44 54 59 48 44 36
24 22 21 25 11 9 9 23 29 11 14 7 5 5 7 17 7 14 22 32 11 15 3 3 5 3 3 9 17 25 24 21 41 52 50 41 44 50 52 51 44 53 46 38
26 21 8 10 9 25 38 7 5 7 8 10 8 15 7 4 10 5 15 7 5 1 5 6 6 7 23 29 22 26 33 32 40 38 34 41 51 52 43 41 35 38 41 32
21 13 9 27 20 13 7 7 6 4 6 12 16 18 5 5 6 3 12 4 6 3 2 3 6 6 9 17 25 38 48 50 51 50 43 34 32 36 38 40 33 41 21 14
14 19 17 19 10 6 7 7 4 6 5 12 11 10 10 4 4 2 7 1 4 5 5 6 5 5 14 3 15 28 44 52 44 38 34 28 23 20 14 19 11 3 13 12
12 11 10 14 9 8 14 11 5 11 11 16 15 10 2 6 9 4 5 9 10 10 7 6 5 11 12 10 19 30 28 30 31 31 27 17 12 20 19 16 22 6 15 11
9 12 12 10 11 12 10 22 23 39 48 53 37 21 3 12 8 7 7 2 2 8 8 9 7 17 19 15 18 38 32 25 29 25 17 26 32 38 26 21 20 17 18 18
10 10 8 13 22 32 27 38 46 48 47 50 17 11 5 17 11 9 8 9 11 9 8 4 7 21 27 30 33 26 30 24 33 40 36 32 30 30 29 30 32 18 13 20
9 8 19 37 35 38 45 48 48 59 59 11 16 15 10 13 9 14 17 8 11 7 4 7 17 25 25 27 28 32 32 20 27 27 23 28 25 21 21 20 22 22 20 20
12 23 33 35 38 33 40 50 48 47 48 25 10 15 14 12 9 8 6 3 6 15 19 18 22 24 29 33 30 32 31 33 34 22 29 25 20 22 21 20 17 16 19 11
Wind_Direction_850mb
311 309 310 314 319 322 340 307 271 263 240 244 240 251 256 259 266 274 279 277 264 267 278 275 256 228 228 232 207 215 213 228 240 243 211 211 218 213 226 239 227 235 253 248
315 315 316 313 312 320 326 300 287 268 272 265 260 264 269 266 270 265 262 266 270 272 260 268 271 272 243 215 238 214 206 219 227 240 242 220 212 224 227 233 251 253 238 245
312 312 313 313 313 310 318 300 297 304 265 246 257 274 281 282 284 281 254 283 289 263 264 258 265 270 276 259 219 69 201 221 220 233 230 221 218 218 221 228 231 239 247 234
304 307 307 310 307 308 298 268 275 304 306 299 301 357 305 300 297 295 306 302 292 327 297 256 254 258 269 271 220 205 219 239 240 220 248 229 234 218 222 223 238 239 240 241
303 297 295 299 298 305 258 269 299 316 302 300 305 294 263 268 281 303 308 289 287 308 296 340 317 319 288 260 241 202 221 230 254 243 225 239 243 227 230 220 227 243 251 248
302 299 290 287 285 285 270 277 283 289 285 283 291 293 298 304 315 312 309 349 303 292 321 320 307 293 285 282 273 219 202 225 229 239 239 243 237 239 238 222 222 230 239 252
307 300 294 282 278 271 260 271 292 286 289 291 284 302 296 312 309 287 292 295 258 273 320 311 307 283 270 266 267 256 205 203 228 235 230 238 245 231 235 253 248 224 223 229
308 300 295 287 279 281 268 271 258 240 267 286 289 292 317 319 286 287 270 289 284 262 299 355 324 273 260 246 246 246 224 193 223 226 229 242 248 236 227 236 237 249 281 317
313 305 279 289 291 275 266 267 255 238 237 260 264 315 296 292 307 303 280 295 299 150 193 78 271 293 276 227 224 246 231 200 230 217 226 226 230 222 132 101 231 348 343 327
318 307 303 291 294 274 272 272 263 244 255 271 274 276 295 296 311 303 305 320 316 181 167 155 257 265 281 274 212 214 224 230 221 224 226 238 263 135 153 197 199 74 2 334
328 325 320 301 290 278 277 278 270 240 258 269 274 270 277 282 270 256 292 320 261 246 201 170 190 257 271 239 248 222 217 217 234 225 214 221 118 157 230 8 110 34 326 313
328 321 317 316 299 292 285 277 279 265 263 268 281 264 262 257 260 276 259 228 279 332 296 203 239 252 290 302 287 266 247 245 244 245 242 134 131 97 116 131 106 38 17 347
336 329 321 310 303 294 285 284 277 287 287 283 268 268 270 254 247 243 257 263 268 266 210 294 271 249 326 279 267 326 274 31 269 229 196 115 112 131 119 110 90 64 41 46
333 330 328 327 316 308 296 285 284 284 276 275 288 291 288 275 273 221 231 242 257 301 302 295 277 284 19 347 317 307 324 318 321 241 134 114 117 112 107 100 94 77 62 60
337 335 329 329 320 330 323 303 291 272 243 284 297 303 284 266 235 212 214 225 236 263 306 353 306 321 357 340 265 310 345 331 334 336 334 114 111 102 93 84 79 75 75 63
337 326 320 315 311 307 313 300 359 8 267 289 305 311 304 292 191 195 199 209 223 256 74 340 294 267 218 287 324 294 338 306 279 108 61 62 78 84 81 77 82 80 77 80
328 321 315 310 305 299 283 280 276 291 303 284 295 296 289 296 213 182 185 194 187 187 117 213 252 230 27 247 254 341 23 126 94 95 96 62 65 68 72 68 76 79 76 70
327 325 318 306 295 285 281 291 333 228 240 255 279 284 282 241 197 164 179 179 186 155 190 225 252 300 238 199 110 86 44 65 88 90 106 105 94 80 65 61 65 62 61 58
343 334 310 306 289 255 300 313 311 281 228 267 250 272 315 318 109 252 146 191 191 153 220 211 248 276 347 358 70 86 82 92 96 94 95 95 84 66 57 54 53 58 43 31
346 324 279 287 297 297 305 295 228 221 224 233 250 210 260 268 241 318 188 82 63 355 283 253 48 17 31 32 84 106 110 99 103 92 83 75 75 75 62 55 47 60 46 18
346 319 292 303 308 293 235 223 253 237 265 224 255 270 257 177 162 232 20 79 126 146 236 46 53 9 15 38 83 103 104 107 104 104 102 101 101 90 72 72 61 61 46 3
320 319 310 314 292 268 311 315 202 215 288 285 259 322 324 118 129 102 204 351 108 39 344 76 75 357 27 95 137 110 97 96 92 88 85 83 92 96 79 111 123 136 2 353
360 337 323 327 304 349 352 327 336 303 176 256 258 54 230 241 116 251 306 33 64 165 41 62 78 223 213 153 106 108 101 97 84 71 68 50 59 70 68 60 38 113 103 61
16 346 352 355 336 2 306 305 309 310 8 354 350 345 268 213 177 64 19 334 349 52 45 42 38 352 11 126 75 76 74 93 92 87 84 76 62 82 79 48 43 55 65 60
11 32 331 348 310 305 305 340 341 4 340 312 317 203 291 12 28 35 32 44 53 36 31 36 2 358 27 58 68 70 84 69 62 66 61 62 58 65 69 61 53 55 68 77
8 342 351 1 0 357 360 352 353 350 350 349 30 23 37 37 36 23 29 26 19 320 347 74 36 44 42 40 49 58 78 114 101 87 73 57 75 73 61 50 52 49 55 71
14 3 4 12 2 14 351 348 358 5 5 34 27 31 27 47 26 43 49 44 315 316 34 57 62 56 59 53 53 56 51 47 49 48 63 60 56 62 59 64 45 49 56 50